Weather History for KXVG - November, 2012

Change the Weather History Date:

Sunday, November 25, 2012

  Actual Average (KPWC) Record (KPWC)
Temperature  
Mean Temperature 18 °F -  
Max Temperature 26 °F 32 °F 46 °F (1997)
Min Temperature 10 °F 17 °F -4 °F (2010)
Degree Days  
Heating Degree Days 47    
Moisture  
Dew Point 15 °F    
Average Humidity 80    
Maximum Humidity 86    
Minimum Humidity 63    
Precipitation  
Precipitation 0.00 in - - ()
Sea Level Pressure  
Sea Level Pressure 29.93 in    
Wind  
Wind Speed 7 mph (WNW)    
Max Wind Speed 14 mph    
Max Gust Speed 24 mph    
Visibility 8 miles    
Events Snow    
Averages and records for this station are not official NWS values.
T = Trace of Precipitation, MM = Missing Value Source: NWS Daily Summary

Daily Weather History Graph

Daily Weather History Graph

Search for Another Location

Airport or City:

Trip Planner

Search our weather history database for the weather conditions in past years. The results will help you decide how hot, cold, wet, or windy it might be!

Date:

Astronomy

Nov. 25, 2012 Rise Set
Actual Time 7:34 AM CST 4:32 PM CST
Civil Twilight 7:00 AM CST 5:06 PM CST
Nautical Twilight 6:22 AM CST 5:44 PM CST
Astronomical Twilight 5:46 AM CST 6:21 PM CST
Moon 2:56 PM CST (11/25) 4:42 AM CST (11/25)
Length of Visible Light 10h 06m
Length of Day
8h 57m
Waxing Gibbous, 93% of the Moon is Illuminated
Nov 25
Waxing Gibbous
Nov 28
Full
Dec 6
Last Quarter
Dec 13
New
Dec 19
First Quarter

Hourly Weather History & Observations

Time (CST) Temp. Windchill Dew Point Humidity Pressure Visibility Wind Dir Wind Speed Gust Speed Precip Events Conditions
12:16 AM 21.2 °F 16.4 °F 17.6 °F 86% 29.77 in 10.0 mi West 3.5 mph - N/A   Overcast
12:36 AM 23.0 °F 17.0 °F 19.4 °F 86% 29.78 in 10.0 mi West 4.6 mph - N/A   Overcast
12:56 AM 23.0 °F 15.8 °F 19.4 °F 86% 29.78 in 10.0 mi WNW 5.8 mph - N/A   Overcast
1:16 AM 24.8 °F 16.9 °F 21.2 °F 86% 29.78 in 10.0 mi WNW 6.9 mph - N/A   Overcast
1:36 AM 24.8 °F 17.9 °F 21.2 °F 86% 29.78 in 10.0 mi WNW 5.8 mph - N/A   Overcast
1:56 AM 24.8 °F 16.1 °F 21.2 °F 86% 29.79 in 10.0 mi WNW 8.1 mph 16.1 mph N/A   Overcast
2:16 AM 24.8 °F 14.6 °F 21.2 °F 86% 29.81 in 10.0 mi WNW 10.4 mph - N/A   Overcast
2:36 AM 24.8 °F 15.3 °F 21.2 °F 86% 29.81 in 10.0 mi NW 9.2 mph 20.7 mph N/A   Overcast
2:56 AM 24.8 °F 14.6 °F 21.2 °F 86% 29.82 in 10.0 mi WNW 10.4 mph 18.4 mph N/A   Overcast
3:16 AM 24.8 °F 14.6 °F 19.4 °F 80% 29.83 in 10.0 mi WNW 10.4 mph 20.7 mph N/A   Overcast
3:36 AM 23.0 °F 13.9 °F 19.4 °F 86% 29.83 in 10.0 mi WNW 8.1 mph 19.6 mph N/A   Overcast
3:56 AM 23.0 °F 11.1 °F 19.4 °F 86% 29.83 in 10.0 mi WNW 12.7 mph 17.3 mph N/A   Overcast
4:16 AM 23.0 °F 13.9 °F 19.4 °F 86% 29.84 in 10.0 mi WNW 8.1 mph - N/A   Overcast
4:36 AM 23.0 °F 12.4 °F 19.4 °F 86% 29.84 in 10.0 mi WNW 10.4 mph 18.4 mph N/A   Overcast
4:56 AM 21.2 °F 8.3 °F 17.6 °F 86% 29.85 in 10.0 mi West 13.8 mph 18.4 mph N/A   Overcast
5:16 AM 21.2 °F 12.6 °F 17.6 °F 86% 29.84 in 10.0 mi NW 6.9 mph - N/A   Overcast
5:36 AM 21.2 °F 8.9 °F 17.6 °F 86% 29.85 in 10.0 mi West 12.7 mph 17.3 mph N/A   Overcast
5:56 AM 21.2 °F 10.9 °F 17.6 °F 86% 29.86 in 10.0 mi West 9.2 mph - N/A   Overcast
6:16 AM 21.2 °F 10.1 °F 15.8 °F 80% 29.87 in 10.0 mi WNW 10.4 mph 17.3 mph N/A   Overcast
6:36 AM 21.2 °F 10.1 °F 15.8 °F 80% 29.86 in 10.0 mi WNW 10.4 mph 17.3 mph N/A Snow Light Snow
6:56 AM 21.2 °F 10.1 °F 15.8 °F 80% 29.87 in 10.0 mi WNW 10.4 mph - N/A Snow Light Snow
7:16 AM 19.4 °F 9.5 °F 15.8 °F 86% 29.87 in 10.0 mi WNW 8.1 mph - N/A Snow Light Snow
7:36 AM 19.4 °F 11.5 °F 14.0 °F 80% 29.87 in 10.0 mi WNW 5.8 mph - N/A Snow Light Snow
7:56 AM 19.4 °F 10.4 °F 14.0 °F 80% 29.88 in 10.0 mi WNW 6.9 mph - N/A   Overcast
8:16 AM 19.4 °F 11.5 °F 15.8 °F 86% 29.90 in 10.0 mi WNW 5.8 mph - N/A   Overcast
8:36 AM 19.4 °F 10.4 °F 15.8 °F 86% 29.90 in 5.0 mi West 6.9 mph - N/A Snow Light Snow
8:56 AM 19.4 °F 11.5 °F 15.8 °F 86% 29.90 in 4.0 mi WSW 5.8 mph - N/A Snow Light Snow
9:16 AM 21.2 °F 13.6 °F 15.8 °F 80% 29.89 in 7.0 mi WSW 5.8 mph - N/A Snow Light Snow
9:36 AM 21.2 °F 12.6 °F 15.8 °F 80% 29.89 in 10.0 mi WSW 6.9 mph - N/A Snow Light Snow
9:56 AM 21.2 °F 14.9 °F 17.6 °F 86% 29.90 in 10.0 mi WSW 4.6 mph - N/A Snow Light Snow
10:16 AM 21.2 °F 13.6 °F 17.6 °F 86% 29.91 in 10.0 mi WSW 5.8 mph - N/A Snow Light Snow
10:36 AM 21.2 °F 14.9 °F 17.6 °F 86% 29.91 in 10.0 mi WSW 4.6 mph - N/A   Overcast
10:56 AM 23.0 °F 15.8 °F 17.6 °F 80% 29.90 in 7.0 mi WSW 5.8 mph - N/A Snow Light Snow
11:16 AM 24.8 °F 17.9 °F 17.6 °F 74% 29.89 in 10.0 mi West 5.8 mph - N/A Snow Light Snow
11:36 AM 24.8 °F 16.9 °F 19.4 °F 80% 29.90 in 7.0 mi West 6.9 mph - N/A Snow Light Snow
11:56 AM 24.8 °F 19.1 °F 19.4 °F 80% 29.89 in 4.0 mi West 4.6 mph - N/A Snow Light Snow
12:16 PM 24.8 °F 14.6 °F 19.4 °F 80% 29.90 in 2.0 mi West 10.4 mph - N/A Snow Light Snow
12:36 PM 24.8 °F 17.9 °F 19.4 °F 80% 29.90 in 1.8 mi West 5.8 mph - N/A Snow Light Snow
12:56 PM 24.8 °F 17.9 °F 19.4 °F 80% 29.89 in 2.0 mi West 5.8 mph - N/A Snow Light Snow
1:16 PM 26.6 °F 20.0 °F 21.2 °F 80% 29.90 in 2.0 mi WNW 5.8 mph - N/A Snow Light Snow
1:36 PM 24.8 °F 17.9 °F 21.2 °F 86% 29.89 in 2.0 mi West 5.8 mph - N/A Snow Light Snow
1:56 PM 26.6 °F 19.1 °F 21.2 °F 80% 29.90 in 2.0 mi WNW 6.9 mph - N/A Snow Light Snow
2:16 PM 26.6 °F 20.0 °F 21.2 °F 80% 29.90 in 2.0 mi WNW 5.8 mph - N/A Snow Light Snow
2:36 PM 24.8 °F 17.9 °F 21.2 °F 86% 29.91 in 1.8 mi NW 5.8 mph - N/A Snow Light Snow
2:56 PM 24.8 °F 16.1 °F 21.2 °F 86% 29.91 in 2.5 mi WNW 8.1 mph - N/A Snow Light Snow
3:16 PM 24.8 °F 19.1 °F 19.4 °F 80% 29.92 in 2.0 mi NNW 4.6 mph - N/A Snow Light Snow
3:36 PM 24.8 °F 15.3 °F 17.6 °F 74% 29.93 in 7.0 mi NW 9.2 mph - N/A Snow Light Snow
3:56 PM 24.8 °F 15.3 °F 17.6 °F 74% 29.94 in 7.0 mi NW 9.2 mph 17.3 mph N/A Snow Light Snow
4:16 PM 23.0 °F 14.7 °F 17.6 °F 80% 29.95 in 10.0 mi NW 6.9 mph - N/A Snow Light Snow
4:36 PM 23.0 °F 13.9 °F 15.8 °F 74% 29.95 in 10.0 mi WNW 8.1 mph - N/A   Overcast
4:56 PM 23.0 °F 11.7 °F 12.2 °F 63% 29.96 in 10.0 mi WNW 11.5 mph 24.2 mph N/A   Mostly Cloudy
5:16 PM 21.2 °F 12.6 °F 12.2 °F 68% 29.97 in 10.0 mi WNW 6.9 mph - N/A   Overcast
5:36 PM 21.2 °F 13.6 °F 10.4 °F 63% 29.98 in 10.0 mi NW 5.8 mph 19.6 mph N/A   Scattered Clouds
5:56 PM 19.4 °F 9.5 °F 10.4 °F 68% 30.00 in 10.0 mi WNW 8.1 mph - N/A   Clear
6:16 PM 19.4 °F 8.6 °F 10.4 °F 68% 30.01 in 10.0 mi WNW 9.2 mph - N/A   Clear
6:36 PM 19.4 °F 8.6 °F 10.4 °F 68% 30.02 in 10.0 mi WNW 9.2 mph - N/A   Mostly Cloudy
6:56 PM 17.6 °F 7.3 °F 10.4 °F 73% 30.03 in 10.0 mi WNW 8.1 mph - N/A   Overcast
7:16 PM 17.6 °F 5.7 °F 10.4 °F 73% 30.03 in 10.0 mi NW 10.4 mph - N/A   Overcast
7:36 PM 17.6 °F 6.4 °F 8.6 °F 68% 30.04 in 10.0 mi NNW 9.2 mph 18.4 mph N/A   Overcast
7:56 PM 15.8 °F 8.6 °F 8.6 °F 73% 30.05 in 10.0 mi NNW 4.6 mph - N/A Snow Light Snow
8:16 PM 15.8 °F 6.1 °F 8.6 °F 73% 30.07 in 10.0 mi NW 6.9 mph - N/A Snow Light Snow
8:36 PM 15.8 °F 6.1 °F 8.6 °F 73% 30.08 in 10.0 mi NW 6.9 mph - N/A Snow Light Snow
8:56 PM 15.8 °F 6.1 °F 6.8 °F 68% 30.09 in 10.0 mi NW 6.9 mph - N/A Snow Light Snow
9:16 PM 14.0 °F 2.9 °F 6.8 °F 73% 30.10 in 10.0 mi NNW 8.1 mph 16.1 mph N/A Snow Light Snow
9:36 PM 14.0 °F 2.9 °F 6.8 °F 73% 30.10 in 10.0 mi NW 8.1 mph - N/A   Overcast
9:56 PM 12.2 °F 2.9 °F 6.8 °F 79% 30.11 in 10.0 mi NW 5.8 mph - N/A   Overcast
10:16 PM 12.2 °F 0.7 °F 6.8 °F 79% 30.12 in 10.0 mi NW 8.1 mph - N/A Snow Light Snow
10:36 PM 12.2 °F 4.3 °F 6.8 °F 79% 30.12 in 7.0 mi NNW 4.6 mph - N/A Snow Light Snow
10:56 PM 12.2 °F 2.9 °F 5.0 °F 73% 30.13 in 7.0 mi NNW 5.8 mph - N/A Snow Light Snow
11:16 PM 10.4 °F -0.4 °F 5.0 °F 79% 30.15 in 7.0 mi North 6.9 mph - N/A Snow Light Snow
11:36 PM 10.4 °F -0.4 °F 5.0 °F 79% 30.16 in 3.0 mi North 6.9 mph - N/A Snow Light Snow
11:56 PM 10.4 °F 0.8 °F 5.0 °F 79% 30.17 in 2.0 mi North 5.8 mph - N/A Snow Light Snow